{"data":{"norad_id":53128,"intl_designator":"2022-082A","name":"SUPERVIEW NEO-2 01","alt_names":[],"object_type":"PAYLOAD","status":"ACTIVE","operator":null,"country":"PRC","launch_date":"2022-07-15","launch_site_code":"TAISC","launch_vehicle":null,"mission":null,"orbit_class":"UNKNOWN","rcs_meters":null,"size_class":null,"mass_kg":null,"dimensions":null,"purposes":[],"wikipedia_slug":null,"has_3d_model":false,"image_url":null,"decayed_at":null,"tle_current":{"epoch":"2026-05-24T23:58:03.913824Z","epoch_age_seconds":75243,"freshness":"FRESH","line1":"1 53128U 22082A   26144.99865641  .00000087  00000+0  63767-5 0  9996","line2":"2 53128  97.3928 155.2574 0001651  90.9909 269.1518 15.24504008214678","mean_motion":15.24504008,"eccentricity":0.0001651,"inclination_deg":97.3928,"raan_deg":155.2574,"arg_perigee_deg":90.9909,"mean_anomaly_deg":269.1518,"bstar":6.3767e-6,"rev_number":21467,"period_min":94.456950748797,"perigee_km":491.14090104754,"apogee_km":493.409511158,"semimajor_km":6870.4122061028,"source":"CELESTRAK","updated_at":"2026-05-25T13:37:58.041250Z"}}}